DW2182 Weather Reports


time (UTC)temp
C
wind
direction
speed
KPH
gust
KPH
rain 1hr
cm
rain 24hr
cm
rain mn
cm
humidity
%
barometer
mb
20260506224517 10 158 6.4 16.1 0.00 0.00 0.00 39 1014.9
20260506223516 11 158 11.3 25.7 0.00 0.00 0.00 39 1015.2
20260506222516 11 135 11.3 24.1 0.00 0.00 0.00 40 1015.2
20260506221516 11 135 8.0 17.7 0.00 0.00 0.00 39 1015.4
20260506220517 11 135 11.3 25.7 0.00 0.00 0.00 40 1015.3
20260506215516 11 135 9.7 20.9 0.00 0.00 0.00 39 1015.3
20260506214516 11 135 11.3 20.9 0.00 0.00 0.00 39 1015.4
20260506213516 11 135 12.9 20.9 0.00 0.00 0.00 39 1015.6
20260506212516 11 135 9.7 19.3 0.00 0.00 0.00 39 1015.6
20260506211516 11 135 9.7 17.7 0.00 0.00 0.00 39 1015.8
20260506210516 11 135 12.9 22.5 0.00 0.00 0.00 40 1015.9
20260506205516 11 135 9.7 19.3 0.00 0.00 0.00 40 1016.1
20260506204536 11 135 9.7 20.9 0.00 0.00 0.00 41 1016.0
20260506203516 10 135 8.0 17.7 0.00 0.00 0.00 41 1016.2
20260506202516 10 135 6.4 16.1 0.00 0.00 0.00 42 1016.0
20260506201516 10 135 9.7 17.7 0.00 0.00 0.00 43 1016.3
20260506200516 10 135 8.0 16.1 0.00 0.00 0.00 41 1016.2
20260506195516 11 135 11.3 29.0 0.00 0.00 0.00 40 1016.5
20260506194536 10 135 9.7 17.7 0.00 0.00 0.00 43 1016.6
20260506193516 10 135 9.7 20.9 0.00 0.00 0.00 42 1016.5
20260506192516 10 135 9.7 17.7 0.00 0.00 0.00 43 1016.5
20260506191516 10 135 9.7 29.0 0.00 0.00 0.00 41 1016.6
20260506190515 9 135 6.4 14.5 0.00 0.00 0.00 44 1016.6
20260506185535 9 135 9.7 25.7 0.00 0.00 0.00 44 1016.5
20260506184536 9 135 11.3 17.7 0.00 0.00 0.00 44 1016.6
20260506183515 9 135 11.3 16.1 0.00 0.00 0.00 43 1016.6
20260506182516 9 135 9.7 19.3 0.00 0.00 0.00 45 1016.7
20260506181516 9 135 8.0 17.7 0.00 0.00 0.00 45 1016.8
20260506180556 8 135 8.0 19.3 0.00 0.00 0.00 46 1016.7
20260506175516 8 135 6.4 14.5 0.00 0.00 0.00 45 1016.9
20260506174516 8 135 9.7 20.9 0.00 0.00 0.00 48 1016.9
20260506173515 7 135 9.7 20.9 0.00 0.00 0.00 48 1016.9
20260506172516 7 135 9.7 20.9 0.00 0.00 0.00 48 1016.9
20260506171535 7 135 8.0 14.5 0.00 0.00 0.00 49 1017.0
20260506170516 6 135 8.0 16.1 0.00 0.00 0.00 51 1017.0
20260506165515 6 135 6.4 14.5 0.00 0.00 0.00 51 1017.1
20260506164516 6 135 8.0 16.1 0.00 0.00 0.00 51 1017.1
20260506163516 6 158 9.7 19.3 0.00 0.00 0.00 50 1017.2
20260506162535 6 158 9.7 16.1 0.00 0.00 0.00 50 1017.3
20260506161516 6 135 8.0 16.1 0.00 0.00 0.00 51 1017.2
20260506160515 6 135 8.0 16.1 0.00 0.00 0.00 51 1017.2
20260506155537 6 135 8.0 14.5 0.00 0.00 0.00 51 1017.2
20260506154518 6 158 8.0 14.5 0.00 0.00 0.00 52 1017.1
20260506153517 6 158 8.0 16.1 0.00 0.00 0.00 52 1017.0
20260506152517 6 135 8.0 20.9 0.00 0.00 0.00 52 1017.0
20260506151517 6 135 6.4 12.9 0.00 0.00 0.00 55 1017.1
20260506150517 6 135 6.4 12.9 0.00 0.00 0.00 56 1017.0
20260506145515 5 135 4.8 11.3 0.00 0.00 0.00 57 1017.0
20260506144536 5 135 6.4 16.1 0.00 0.00 0.00 57 1016.9
20260506143516 5 135 4.8 11.3 0.00 0.00 0.00 58 1016.9
20260506142518 5 135 6.4 11.3 0.00 0.00 0.00 58 1016.9
20260506141517 5 135 6.4 12.9 0.00 0.00 0.00 58 1017.0
20260506140537 5 135 6.4 12.9 0.00 0.00 0.00 59 1017.0
20260506135516 5 135 6.4 14.5 0.00 0.00 0.00 59 1017.0
20260506134538 5 158 6.4 9.7 0.00 0.00 0.00 60 1017.0
20260506133518 4 135 9.7 17.7 0.00 0.00 0.00 60 1016.9
20260506132518 4 135 8.0 16.1 0.00 0.00 0.00 61 1016.8
20260506131518 4 135 6.4 12.9 0.00 0.00 0.00 60 1016.8
20260506130518 4 135 6.4 12.9 0.00 0.00 0.00 61 1016.5
20260506125537 4 135 4.8 8.0 0.00 0.00 0.00 62 1016.5
20260506124517 3 135 4.8 11.3 0.00 0.00 0.00 62 1016.4
20260506123517 3 135 3.2 8.0 0.00 0.00 0.00 63 1016.4
20260506122518 3 135 3.2 11.3 0.00 0.00 0.00 64 1016.1
20260506121537 3 135 3.2 4.8 0.00 0.00 0.00 63 1016.1
20260506120517 3 135 4.8 6.4 0.00 0.00 0.00 63 1016.0
20260506115518 3 135 4.8 6.4 0.00 0.00 0.00 63 1015.8
20260506114518 3 135 3.2 8.0 0.00 0.00 0.00 63 1015.6
20260506113517 3 135 3.2 8.0 0.00 0.00 0.00 64 1015.3
20260506112517 3 135 3.2 6.4 0.00 0.00 0.00 65 1015.5
20260506111517 3 135 1.6 6.4 0.00 0.00 0.00 64 1015.2
20260506110517 3 135 1.6 3.2 0.00 0.00 0.00 64 1015.1
20260506105517 3 0.0 0.0 0.00 0.00 0.00 63 1014.9
20260506104517 3 0.0 0.0 0.00 0.00 0.00 63 1014.7
20260506103517 3 0.0 0.0 0.00 0.00 0.00 62 1014.9
20260506102517 3 0.0 0.0 0.00 0.00 0.00 62 1015.1
20260506101517 3 0.0 0.0 0.00 0.00 0.00 62 1015.1
20260506100517 3 0.0 1.6 0.00 0.00 0.00 61 1015.3
20260506095517 3 135 1.6 4.8 0.00 0.00 0.00 61 1015.3
20260506094518 3 135 1.6 4.8 0.00 0.00 0.00 61 1015.2
20260506093517 3 135 3.2 4.8 0.00 0.00 0.00 61 1014.9
20260506092518 3 135 3.2 6.4 0.00 0.00 0.00 60 1014.9
20260506091517 3 135 1.6 4.8 0.00 0.00 0.00 60 1014.9
20260506090537 3 135 3.2 6.4 0.00 0.00 0.00 60 1014.8
20260506085557 3 135 3.2 6.4 0.00 0.00 0.00 61 1014.9
20260506084518 3 135 3.2 6.4 0.00 0.00 0.00 61 1014.7
20260506083537 3 135 3.2 8.0 0.00 0.00 0.00 61 1014.5
20260506082517 2 135 1.6 6.4 0.00 0.00 0.00 62 1014.7
20260506081517 2 135 1.6 6.4 0.00 0.00 0.00 62 1014.7
20260506080537 2 0.0 0.0 0.00 0.00 0.00 63 1014.3
20260506073517 2 0.0 0.0 0.00 0.00 0.00 62 1014.7
20260506072517 2 0.0 0.0 0.00 0.00 0.00 61 1014.5
20260506071517 2 0.0 0.0 0.00 0.00 0.00 61 1014.4
20260506070517 2 0.0 0.0 0.00 0.00 0.00 61 1014.3
20260506062517 3 0.0 0.0 0.00 0.00 0.00 58 1014.0
20260506061517 3 0.0 0.0 0.00 0.00 0.00 58 1014.2
20260506060517 3 0.0 0.0 0.00 0.00 0.00 58 1014.2
20260506050537 4 158 3.2 4.8 0.00 0.00 0.00 54 1014.1
20260506044517 5 0 1.6 3.2 0.00 0.00 0.00 53 1013.9
20260506043517 5 0 1.6 3.2 0.00 0.00 0.00 52 1014.0
20260506042517 5 0 1.6 3.2 0.00 0.00 0.00 52 1013.9
20260506041517 5 0 1.6 6.4 0.00 0.00 0.00 52 1013.8
20260506040517 6 158 3.2 9.7 0.00 0.00 0.00 51 1013.8
20260506035537 6 158 1.6 4.8 0.00 0.00 0.00 50 1013.8
20260506034517 6 158 3.2 9.7 0.00 0.00 0.00 49 1013.6
20260506033517 6 135 3.2 6.4 0.00 0.00 0.00 48 1013.6
20260506032517 6 158 4.8 12.9 0.00 0.00 0.00 48 1013.6
20260506031517 7 158 4.8 11.3 0.00 0.00 0.00 47 1013.4
20260506030517 7 158 3.2 12.9 0.00 0.00 0.00 46 1013.4
20260506025517 7 158 3.2 11.3 0.00 0.00 0.00 45 1013.3
20260506024517 7 158 9.7 22.5 0.00 0.00 0.00 44 1013.2
20260506023517 8 158 6.4 16.1 0.00 0.00 0.00 44 1013.2
20260506022517 8 158 4.8 14.5 0.00 0.00 0.00 44 1012.9
20260506021517 8 135 6.4 14.5 0.00 0.00 0.00 43 1012.6
20260506020517 8 158 6.4 16.1 0.00 0.00 0.00 43 1012.5
20260506015557 8 135 4.8 12.9 0.00 0.00 0.00 43 1012.4
20260506014517 8 135 8.0 17.7 0.00 0.00 0.00 42 1012.3
20260506013517 9 135 8.0 14.5 0.00 0.00 0.00 41 1012.1
20260506012537 9 135 8.0 16.1 0.00 0.00 0.00 40 1012.0
20260506011517 9 158 6.4 17.7 0.00 0.00 0.00 40 1011.7
20260506010516 10 158 9.7 19.3 0.00 0.00 0.00 39 1011.8
20260506005517 10 135 8.0 19.3 0.00 0.00 0.00 39 1011.5
20260506004517 10 135 11.3 24.1 0.00 0.00 0.00 37 1011.3
20260506003517 10 135 6.4 16.1 0.00 0.00 0.00 37 1011.2
20260506002516 10 158 9.7 20.9 0.00 0.00 0.00 37 1011.1
20260506001516 10 135 11.3 17.7 0.00 0.00 0.00 36 1011.0
20260506000518 10 135 8.0 20.9 0.00 0.00 0.00 35 1011.0
20260505235517 10 135 8.0 16.1 0.00 0.00 0.00 36 1010.8
20260505234517 11 135 9.7 17.7 0.00 0.00 0.00 35 1010.8
20260505233517 11 135 11.3 25.7 0.00 0.00 0.00 34 1010.7
20260505232516 11 135 11.3 25.7 0.00 0.00 0.00 34 1010.7
20260505231517 11 135 11.3 20.9 0.00 0.00 0.00 34 1010.7
20260505230516 11 135 9.7 17.7 0.00 0.00 0.00 35 1010.5
20260505225517 11 135 9.7 22.5 0.00 0.00 0.00 35 1010.4